Location: ČR
(50.0000°N, 15.0000°E)
Time: 14:37:02
(UTC+01:00)

ARIANE 6 FM1 Upper Stage - Pass Details

Date: 24 January 2026
Orbit: 522 x 609 km, 62.0° (Epoch: 13 February)

Event Time Altitude Azimuth Distance (km) Brightness Sun altitude
Rises 20:12:54 0° 259° (WSW) 2,690 7.0 -33.8°
Reaches altitude 10° 20:15:21 10° 271° (W) 1,789 6.0 -34.1°
Enters shadow 20:16:20 16° 280° (W) 1,468 5.5 -34.3°
